Time,TemperatureF,DewpointF,PressureIn,WindDirection,WindDirectionDegrees,WindSpeedMPH,WindSpeedGustMPH,Humidity,HourlyPrecipIn,Conditions,Clouds,dailyrainin,SoftwareType,DateUTC
2013-07-03 00:01:00,71.0,69.0,30.25,SW,235,0.0,-999.0,95,-99.99,,,-99.99,,2013-07-03 04:01:00,
2013-07-03 00:33:00,71.0,69.0,30.25,SW,234,0.0,-999.0,95,-99.99,,,-99.99,,2013-07-03 04:33:00,
2013-07-03 00:43:00,71.0,69.0,30.25,SW,235,0.0,-999.0,95,-99.99,,,-99.99,,2013-07-03 04:43:00,
2013-07-03 00:52:00,71.0,69.0,30.25,SW,235,0.0,-999.0,95,-99.99,,,-99.99,,2013-07-03 04:52:00,
2013-07-03 01:02:00,71.0,69.0,30.24,SW,235,0.0,-999.0,95,-99.99,,,-99.99,,2013-07-03 05:02:00,
2013-07-03 01:11:00,72.0,70.0,30.24,SW,234,0.0,-999.0,95,-99.99,,,-99.99,,2013-07-03 05:11:00,
2013-07-03 01:56:00,72.0,71.0,30.24,SW,235,0.0,-999.0,96,-99.99,,,-99.99,,2013-07-03 05:56:00,
2013-07-03 02:14:00,72.0,71.0,30.24,SW,235,0.0,-999.0,96,-99.99,,,-99.99,,2013-07-03 06:14:00,
2013-07-03 02:49:00,72.0,71.0,30.24,SW,235,0.0,-999.0,96,-99.99,,,-99.99,,2013-07-03 06:49:00,
2013-07-03 03:05:00,72.0,71.0,30.24,SW,235,0.0,-999.0,96,-99.99,,,-99.99,,2013-07-03 07:05:00,
2013-07-03 03:15:00,72.0,71.0,30.24,SW,235,0.0,-999.0,96,-99.99,,,-99.99,,2013-07-03 07:15:00,
2013-07-03 03:37:00,72.0,71.0,30.24,SW,235,0.0,-999.0,96,-99.99,,,-99.99,,2013-07-03 07:37:00,
2013-07-03 03:47:00,72.0,71.0,30.24,SW,235,0.0,-999.0,96,-99.99,,,-99.99,,2013-07-03 07:47:00,
2013-07-03 03:56:00,72.0,71.0,30.23,SW,235,0.0,-999.0,96,-99.99,,,-99.99,,2013-07-03 07:56:00,
2013-07-03 04:09:00,72.0,71.0,30.24,SW,235,0.0,-999.0,96,-99.99,,,-99.99,,2013-07-03 08:09:00,
2013-07-03 04:16:00,72.0,71.0,30.23,SW,234,0.0,-999.0,96,-99.99,,,-99.99,,2013-07-03 08:16:00,
2013-07-03 04:25:00,72.0,71.0,30.24,SW,235,0.0,-999.0,96,-99.99,,,-99.99,,2013-07-03 08:25:00,
2013-07-03 04:37:00,72.0,71.0,30.23,WSW,238,0.0,-999.0,96,-99.99,,,-99.99,,2013-07-03 08:37:00,
2013-07-03 04:45:00,72.0,71.0,30.24,SW,221,0.0,-999.0,96,-99.99,,,-99.99,,2013-07-03 08:45:00,
2013-07-03 04:56:00,72.0,71.0,30.24,SW,221,0.0,-999.0,96,-99.99,,,-99.99,,2013-07-03 08:56:00,
2013-07-03 05:16:00,72.0,71.0,30.24,SW,219,0.0,-999.0,96,-99.99,,,-99.99,,2013-07-03 09:16:00,
2013-07-03 05:25:00,72.0,71.0,30.24,SW,236,0.0,-999.0,96,-99.99,,,-99.99,,2013-07-03 09:25:00,
2013-07-03 05:46:00,72.0,71.0,30.25,WSW,238,0.0,-999.0,96,-99.99,,,-99.99,,2013-07-03 09:46:00,
2013-07-03 06:05:00,72.0,71.0,30.26,SW,232,0.0,-999.0,96,-99.99,,,-99.99,,2013-07-03 10:05:00,
2013-07-03 06:16:00,72.0,71.0,30.26,SW,232,0.0,-999.0,96,-99.99,,,-99.99,,2013-07-03 10:16:00,
2013-07-03 06:45:00,72.0,71.0,30.27,SW,232,0.0,-999.0,97,-99.99,,,-99.99,,2013-07-03 10:45:00,
2013-07-03 06:55:00,72.0,71.0,30.27,SW,232,0.0,-999.0,97,-99.99,,,-99.99,,2013-07-03 10:55:00,
2013-07-03 07:43:00,72.0,71.0,30.29,SW,232,0.0,-999.0,97,-99.99,,,-99.99,,2013-07-03 11:43:00,
2013-07-03 07:53:00,72.0,71.0,30.29,SW,232,0.0,-999.0,97,-99.99,,,-99.99,,2013-07-03 11:53:00,
2013-07-03 08:16:00,72.0,71.0,30.30,WSW,240,0.0,-999.0,97,-99.99,,,-99.99,,2013-07-03 12:16:00,
2013-07-03 08:25:00,72.0,71.0,30.30,SW,226,0.0,-999.0,97,-99.99,,,-99.99,,2013-07-03 12:25:00,
2013-07-03 08:37:00,72.0,71.0,30.30,SW,227,0.0,-999.0,97,-99.99,,,-99.99,,2013-07-03 12:37:00,
2013-07-03 08:43:00,72.0,71.0,30.31,SW,226,0.0,-999.0,97,-99.99,,,-99.99,,2013-07-03 12:43:00,
2013-07-03 08:57:00,72.0,71.0,30.31,SW,236,0.0,-999.0,97,-99.99,,,-99.99,,2013-07-03 12:57:00,
2013-07-03 09:07:00,72.0,71.0,30.31,SW,236,0.0,-999.0,97,-99.99,,,-99.99,,2013-07-03 13:07:00,
2013-07-03 09:47:00,73.0,72.0,30.31,SW,228,0.0,-999.0,97,-99.99,,,-99.99,,2013-07-03 13:47:00,
2013-07-03 09:54:00,73.0,72.0,30.31,SW,226,0.0,-999.0,97,-99.99,,,-99.99,,2013-07-03 13:54:00,
2013-07-03 10:46:00,74.0,73.0,30.30,SW,232,0.0,-999.0,96,-99.99,,,-99.99,,2013-07-03 14:46:00,
2013-07-03 11:05:00,75.0,74.0,30.31,SW,236,0.0,-999.0,96,-99.99,,,-99.99,,2013-07-03 15:05:00,
2013-07-03 11:26:00,75.0,73.0,30.32,SW,230,0.0,-999.0,95,-99.99,,,-99.99,,2013-07-03 15:26:00,
2013-07-03 11:37:00,75.0,73.0,30.32,WSW,248,0.0,-999.0,94,-99.99,,,-99.99,,2013-07-03 15:37:00,
2013-07-03 11:47:00,75.0,73.0,30.32,WSW,254,1.0,-999.0,94,-99.99,,,-99.99,,2013-07-03 15:47:00,
2013-07-03 11:55:00,75.0,73.0,30.32,WSW,247,0.0,-999.0,94,-99.99,,,-99.99,,2013-07-03 15:55:00,
2013-07-03 12:23:00,75.0,73.0,30.32,NNE,18,0.0,-999.0,93,-99.99,,,-99.99,,2013-07-03 16:23:00,
2013-07-03 12:38:00,75.0,73.0,30.32,North,355,0.0,-999.0,92,-99.99,,,-99.99,,2013-07-03 16:38:00,
2013-07-03 12:46:00,76.0,73.0,30.31,WSW,248,1.0,-999.0,91,-99.99,,,-99.99,,2013-07-03 16:46:00,
2013-07-03 13:25:00,77.0,74.0,30.31,SW,236,0.0,-999.0,90,-99.99,,,-99.99,,2013-07-03 17:25:00,
2013-07-03 13:40:00,77.0,74.0,30.31,NNW,336,0.0,-999.0,90,-99.99,,,-99.99,,2013-07-03 17:40:00,
2013-07-03 13:53:00,77.0,73.0,30.30,WSW,255,0.0,-999.0,88,-99.99,,,-99.99,,2013-07-03 17:53:00,
2013-07-03 14:15:00,77.0,73.0,30.29,SW,221,0.0,-999.0,88,-99.99,,,-99.99,,2013-07-03 18:15:00,
2013-07-03 14:25:00,77.0,73.0,30.29,West,265,0.0,-999.0,88,-99.99,,,-99.99,,2013-07-03 18:25:00,
2013-07-03 14:36:00,78.0,74.0,30.29,SW,234,0.0,-999.0,88,-99.99,,,-99.99,,2013-07-03 18:36:00,
2013-07-03 14:45:00,78.0,74.0,30.29,SW,234,0.0,-999.0,87,-99.99,,,-99.99,,2013-07-03 18:45:00,
2013-07-03 14:56:00,78.0,73.0,30.29,West,259,0.0,-999.0,86,-99.99,,,-99.99,,2013-07-03 18:56:00,
2013-07-03 15:37:00,78.0,74.0,30.28,West,275,0.0,-999.0,88,-99.99,,,-99.99,,2013-07-03 19:37:00,
2013-07-03 15:46:00,78.0,74.0,30.27,SW,233,0.0,-999.0,89,-99.99,,,-99.99,,2013-07-03 19:46:00,
2013-07-03 16:24:00,77.0,74.0,30.28,West,273,0.0,-999.0,89,-99.99,,,-99.99,,2013-07-03 20:24:00,
2013-07-03 16:37:00,77.0,73.0,30.28,NNW,348,0.0,-999.0,88,-99.99,,,-99.99,,2013-07-03 20:37:00,
2013-07-03 17:13:00,77.0,74.0,30.27,West,268,0.0,-999.0,89,-99.99,,,-99.99,,2013-07-03 21:13:00,
2013-07-03 17:26:00,77.0,74.0,30.27,NNW,336,0.0,-999.0,89,-99.99,,,-99.99,,2013-07-03 21:26:00,
2013-07-03 17:35:00,77.0,74.0,30.27,NNW,336,0.0,-999.0,89,-99.99,,,-99.99,,2013-07-03 21:35:00,
2013-07-03 17:44:00,77.0,74.0,30.27,SW,218,0.0,-999.0,89,-99.99,,,-99.99,,2013-07-03 21:44:00,
2013-07-03 17:53:00,77.0,73.0,30.26,SW,235,0.0,-999.0,88,-99.99,,,-99.99,,2013-07-03 21:53:00,
2013-07-03 18:14:00,77.0,74.0,30.26,SW,220,0.0,-999.0,89,-99.99,,,-99.99,,2013-07-03 22:14:00,
2013-07-03 18:26:00,77.0,74.0,30.27,SW,220,0.0,-999.0,89,-99.99,,,-99.99,,2013-07-03 22:26:00,
2013-07-03 18:37:00,77.0,74.0,30.27,SW,219,0.0,-999.0,89,-99.99,,,-99.99,,2013-07-03 22:37:00,
2013-07-03 18:45:00,76.0,73.0,30.27,SW,235,0.0,-999.0,90,-99.99,,,-99.99,,2013-07-03 22:45:00,
2013-07-03 18:54:00,76.0,73.0,30.27,West,259,1.0,-999.0,90,-99.99,,,-99.99,,2013-07-03 22:54:00,
2013-07-03 19:05:00,76.0,73.0,30.29,NW,318,0.0,-999.0,90,-99.99,,,-99.99,,2013-07-03 23:05:00,
2013-07-03 19:14:00,76.0,73.0,30.29,NW,321,0.0,-999.0,89,-99.99,,,-99.99,,2013-07-03 23:14:00,
2013-07-03 19:39:00,75.0,72.0,30.30,WNW,291,0.0,-999.0,90,-99.99,,,-99.99,,2013-07-03 23:39:00,
2013-07-03 19:45:00,75.0,72.0,30.30,WSW,248,0.0,-999.0,90,-99.99,,,-99.99,,2013-07-03 23:45:00,
2013-07-03 19:54:00,75.0,72.0,30.30,WNW,290,0.0,-999.0,90,-99.99,,,-99.99,,2013-07-03 23:54:00,
2013-07-03 20:04:00,75.0,72.0,30.30,NW,319,0.0,-999.0,91,-99.99,,,-99.99,,2013-07-04 00:04:00,
2013-07-03 20:25:00,75.0,72.0,30.30,WSW,254,0.0,-999.0,91,-99.99,,,-99.99,,2013-07-04 00:25:00,
2013-07-03 20:37:00,75.0,72.0,30.30,NNW,342,0.0,-999.0,91,-99.99,,,-99.99,,2013-07-04 00:37:00,
2013-07-03 20:48:00,75.0,73.0,30.30,WNW,291,0.0,-999.0,92,-99.99,,,-99.99,,2013-07-04 00:48:00,
2013-07-03 20:55:00,75.0,73.0,30.30,WNW,291,0.0,-999.0,92,-99.99,,,-99.99,,2013-07-04 00:55:00,
2013-07-03 21:04:00,74.0,72.0,30.30,WNW,291,0.0,-999.0,92,-99.99,,,-99.99,,2013-07-04 01:04:00,
2013-07-03 21:15:00,74.0,72.0,30.30,WNW,291,0.0,-999.0,92,-99.99,,,-99.99,,2013-07-04 01:15:00,
2013-07-03 21:37:00,74.0,72.0,30.30,WNW,291,0.0,-999.0,93,-99.99,,,-99.99,,2013-07-04 01:37:00,
2013-07-03 21:43:00,74.0,72.0,30.30,WNW,291,0.0,-999.0,93,-99.99,,,-99.99,,2013-07-04 01:43:00,
2013-07-03 21:54:00,74.0,72.0,30.30,WNW,291,0.0,-999.0,93,-99.99,,,-99.99,,2013-07-04 01:54:00,
2013-07-03 22:07:00,73.0,71.0,30.31,WNW,291,0.0,-999.0,93,-99.99,,,-99.99,,2013-07-04 02:07:00,
2013-07-03 22:48:00,73.0,71.0,30.32,ESE,105,0.0,-999.0,94,-99.99,,,-99.99,,2013-07-04 02:48:00,
2013-07-03 22:55:00,73.0,71.0,30.32,ESE,105,0.0,-999.0,94,-99.99,,,-99.99,,2013-07-04 02:55:00,
2013-07-03 23:14:00,73.0,71.0,30.32,ESE,105,0.0,-999.0,94,-99.99,,,-99.99,,2013-07-04 03:14:00,
2013-07-03 23:27:00,73.0,71.0,30.32,ESE,105,0.0,-999.0,94,-99.99,,,-99.99,,2013-07-04 03:27:00,
2013-07-03 23:35:00,73.0,71.0,30.32,ESE,105,0.0,-999.0,95,-99.99,,,-99.99,,2013-07-04 03:35:00,
2013-07-03 23:46:00,73.0,71.0,30.32,ESE,105,0.0,-999.0,95,-99.99,,,-99.99,,2013-07-04 03:46:00,
2013-07-03 23:56:00,73.0,71.0,30.32,ESE,105,0.0,-999.0,95,-99.99,,,-99.99,,2013-07-04 03:56:00,